Flag for Austria Weather past 2 weeks in Waidhofen an der Ybbs, Lower Austria, Austria

Now
52 °F

Sprinkles. Cloudy.


Feels Like: 52 °F
Forecast: 45 / 65 °F
Wind: 3 mph from Southwest

Location: Amstetten

Current Time: May 24, 2015 at 2:29:20 PM

Latest Report: May 24, 2015 at 1:00 PM


Visibility: N/A

Pressure: 30.11 "Hg

Humidity: 95%

Dew point: 51 °F

Location of Waidhofen an der YbbsLocation

Historic Weather in Waidhofen an der Ybbs — Graph

°F

Waidhofen an der Ybbs temperature yesterday

Maximum temperature yesterday: 53 °F (at 2:00 PM)
Minimum temperature yesterday: 50 °F (at 6:00 AM)
Average temperature yesterday: 51 °F

Past Weeks' High & Low Weather Summary

 TemperatureHumidityPressure
High78 °F (May 12, 6:00 PM)100% (May 20, 9:00 AM)30.41 "Hg (May 20, 9:00 AM)
Low43 °F (May 11, 6:00 AM)26% (May 11, 3:00 PM)29.71 "Hg (May 18, 8:00 PM)
Average57 °F78%30.07 "Hg
* Reported May 9 1:00 PM — May 24 1:00 PM, Waidhofen an der Ybbs, Weather by CustomWeather, © 2015

Note: Actual official high and low records may vary slightly from our data, if they occured in-between our weather recording intervals... More about our weather records

Advertising

Waidhofen an der Ybbs weather history for previous 24 hours

 ConditionsComfort  
Time TempWeatherWind HumidityBarometerVisibility
1:00 PM
Sun, May 24
52 °FSprinkles. Cloudy.3 mph95%30.11 "HgN/A
12:00 PM51 °FSprinkles. Cloudy.3 mph96%30.11 "HgN/A
11:00 AM51 °FCool.3 mph95%30.11 "HgN/A
10:00 AM51 °FCool.3 mph94%30.10 "HgN/A
9:00 AM50 °FCool.3 mph94%30.09 "HgN/A
8:00 AM50 °FCool.1 mph98%30.08 "HgN/A
7:00 AM49 °FFog.2 mph97%30.06 "HgN/A
6:00 AM49 °FSprinkles. Cloudy.1 mph97%30.06 "HgN/A
5:00 AM50 °FFog.No wind97%30.05 "HgN/A
4:00 AM50 °FCool.1 mph95%30.05 "HgN/A
3:00 AM50 °FCool.1 mph97%30.04 "HgN/A
2:00 AM51 °FCool.2 mph96%30.05 "HgN/A
1:00 AM51 °FCool.1 mph96%30.04 "HgN/A
12:00 AM51 °FFog.2 mph97%30.04 "HgN/A
10:00 PM
Sat, May 23
52 °FFog.2 mph96%30.03 "HgN/A
9:00 PM52 °FFog.2 mph96%30.01 "HgN/A
8:00 PM51 °FCool.1 mph97%30.01 "HgN/A
7:00 PM51 °FFog.3 mph96%30.01 "HgN/A
6:00 PM52 °FFog.3 mph95%30.01 "HgN/A
4:00 PM52 °FFog.3 mph97%30.01 "HgN/A
3:00 PM53 °FFog.2 mph95%30.01 "HgN/A
2:00 PM53 °FCool.2 mph94%30.01 "HgN/A
Weather by CustomWeather, © 2015

See weather overviewHow to use our weather pages